Location: Canyon Rim
(40.8777°N, 111.8641°W)
Time: 07:10:00
(UTC+00:00)

X-37B - Pass Details

Date: 24 April 2021
Orbit: 386 x 389 km, 45.0° (Epoch: 08 May)

Event Time Altitude Azimuth Distance (km) Brightness Sun altitude
Exits shadow 11:31:35 - 295° (WNW) 1,535 3.3 -11.8°
Reaches altitude 10° 11:31:53 10° 295° (WNW) 1,415 3.1 -11.7°
Maximum altitude 11:35:01 58° 16° (NNE) 458 1.2 -11.2°
Drops below altitude 10° 11:38:10 10° 97° (E) 1,410 4.3 -10.7°
Sets 11:40:15 0° 101° (E) 2,262 5.4 -10.3°
